QPF
0.01 0.03 0.04 0.02 0.01 0.02 0.02 0.03 0.03 0.02 0.01 0.01 0.02 0.02 0.01 0.01 0.01 0.01 0.01 0.01 0.01 0.01 0.00 0.00 0.00 0.00 0.00 0.00 0.00 0.01 0.01 0.02 0.01 0.01 0.02 0.01 0.01 0.01 0.00 0.00 0.00 0.00 0.00 0.00
0.02 0.02 0.01 0.01 0.00 0.01 0.02 0.03 0.03 0.01 0.01 0.01 0.01 0.01 0.01 0.01 0.01 0.01 0.01 0.01 0.01 0.01 0.01 0.00 0.00 0.00 0.00 0.00 0.00 0.00 0.00 0.00 0.01 0.01 0.02 0.01 0.01 0.00 0.00 0.00 0.00 0.00 0.00 0.00
0.01 0.02 0.01 0.01 0.01 0.01 0.02 0.03 0.02 0.03 0.01 0.01 0.01 0.02 0.01 0.00 0.01 0.01 0.01 0.01 0.01 0.01 0.01 0.00 0.00 0.01 0.00 0.00 0.00 0.00 0.00 0.00 0.00 0.01 0.01 0.01 0.01 0.01 0.01 0.01 0.00 0.00 0.00 0.00
0.00 0.01 0.01 0.02 0.02 0.02 0.03 0.01 0.01 0.03 0.04 0.02 0.01 0.04 0.02 0.01 0.01 0.01 0.01 0.01 0.01 0.00 0.00 0.00 0.00 0.00 0.00 0.00 0.00 0.00 0.00 0.01 0.00 0.00 0.01 0.01 0.02 0.02 0.01 0.01 0.01 0.01 0.01 0.01
0.00 0.00 0.01 0.02 0.01 0.01 0.01 0.01 0.01 0.01 0.02 0.02 0.01 0.03 0.04 0.01 0.01 0.01 0.01 0.01 0.01 0.00 0.00 0.00 0.00 0.00 0.00 0.00 0.00 0.00 0.01 0.01 0.01 0.00 0.01 0.01 0.01 0.01 0.01 0.01 0.01 0.01 0.01 0.01
0.00 0.00 0.00 0.00 0.00 0.00 0.00 0.00 0.01 0.01 0.02 0.04 0.01 0.03 0.04 0.01 0.01 0.01 0.00 0.00 0.00 0.00 0.00 0.00 0.00 0.00 0.00 0.00 0.00 0.00 0.00 0.01 0.01 0.01 0.01 0.00 0.00 0.01 0.01 0.00 0.00 0.01 0.01 0.00
0.01 0.00 0.00 0.00 0.01 0.01 0.00 0.02 0.04 0.05 0.05 0.05 0.01 0.03 0.03 0.00 0.00 0.00 0.00 0.00 0.00 0.00 0.00 0.00 0.00 0.00 0.00 0.00 0.00 0.00 0.00 0.00 0.01 0.01 0.01 0.01 0.01 0.01 0.01 0.01 0.01 0.01 0.01 0.00
0.01 0.01 0.00 0.00 0.01 0.02 0.01 0.02 0.05 0.05 0.05 0.03 0.01 0.03 0.01 0.00 0.00 0.00 0.00 0.00 0.00 0.00 0.01 0.01 0.01 0.01 0.01 0.00 0.00 0.00 0.00 0.00 0.01 0.01 0.01 0.01 0.02 0.02 0.01 0.01 0.01 0.01 0.02 0.02
0.01 0.01 0.00 0.00 0.00 0.00 0.01 0.02 0.01 0.02 0.02 0.04 0.03 0.01 0.01 0.00 0.00 0.00 0.01 0.00 0.00 0.00 0.01 0.01 0.00 0.00 0.00 0.00 0.00 0.00 0.00 0.00 0.00 0.00 0.00 0.01 0.02 0.02 0.02 0.01 0.01 0.01 0.01 0.02
0.00 0.01 0.00 0.00 0.00 0.01 0.01 0.01 0.02 0.03 0.04 0.05 0.04 0.02 0.01 0.00 0.00 0.00 0.01 0.01 0.00 0.00 0.00 0.00 0.00 0.00 0.01 0.00 0.00 0.00 0.00 0.00 0.00 0.00 0.00 0.01 0.01 0.01 0.01 0.01 0.01 0.01 0.01 0.01
0.00 0.01 0.01 0.00 0.01 0.01 0.02 0.03 0.03 0.04 0.03 0.04 0.04 0.02 0.00 0.00 0.00 0.00 0.01 0.00 0.00 0.00 0.00 0.00 0.00 0.01 0.01 0.00 0.00 0.00 0.00 0.00 0.00 0.00 0.00 0.01 0.01 0.01 0.00 0.00 0.00 0.01 0.01 0.01
0.00 0.01 0.02 0.01 0.00 0.01 0.02 0.04 0.05 0.05 0.03 0.03 0.03 0.02 0.00 0.00 0.00 0.00 0.00 0.00 0.01 0.01 0.02 0.02 0.02 0.02 0.02 0.01 0.00 0.00 0.00 0.00 0.00 0.00 0.00 0.01 0.01 0.01 0.00 0.00 0.00 0.00 0.00 0.01
0.01 0.03 0.03 0.03 0.02 0.01 0.01 0.02 0.02 0.03 0.02 0.04 0.04 0.02 0.00 0.00 0.00 0.00 0.01 0.01 0.01 0.02 0.02 0.01 0.01 0.02 0.02 0.01 0.01 0.01 0.01 0.00 0.00 0.00 0.01 0.01 0.01 0.00 0.00 0.00 0.00 0.00 0.00 0.01
0.00 0.03 0.03 0.03 0.02 0.01 0.01 0.01 0.02 0.03 0.03 0.03 0.02 0.01 0.00 0.00 0.00 0.01 0.02 0.02 0.02 0.02 0.02 0.01 0.02 0.03 0.02 0.01 0.01 0.01 0.01 0.00 0.00 0.00 0.00 0.01 0.01 0.01 0.00 0.00 0.00 0.00 0.00 0.01
0.00 0.01 0.01 0.00 0.00 0.00 0.01 0.01 0.01 0.03 0.03 0.02 0.01 0.00 0.01 0.01 0.01 0.01 0.02 0.02 0.02 0.02 0.01 0.01 0.01 0.02 0.02 0.01 0.02 0.02 0.01 0.00 0.01 0.01 0.00 0.01 0.01 0.01 0.00 0.00 0.00 0.00 0.00 0.00
0.01 0.00 0.00 0.00 0.00 0.00 0.01 0.01 0.00 0.01 0.02 0.02 0.01 0.01 0.01 0.01 0.00 0.01 0.01 0.01 0.00 0.00 0.00 0.01 0.01 0.01 0.01 0.01 0.01 0.02 0.01 0.01 0.01 0.01 0.01 0.01 0.01 0.00 0.00 0.00 0.00 0.00 0.00 0.00
0.00 0.00 0.01 0.01 0.00 0.00 0.01 0.00 0.00 0.00 0.00 0.01 0.01 0.01 0.01 0.01 0.01 0.00 0.01 0.01 0.00 0.00 0.00 0.00 0.00 0.01 0.01 0.01 0.01 0.01 0.01 0.01 0.01 0.01 0.01 0.01 0.00 0.00 0.00 0.00 0.00 0.00 0.00 0.00
0.00 0.00 0.01 0.01 0.01 0.02 0.01 0.00 0.00 0.00 0.00 0.00 0.00 0.01 0.01 0.01 0.01 0.01 0.00 0.00 0.00 0.00 0.00 0.00 0.00 0.00 0.01 0.01 0.01 0.01 0.01 0.01 0.01 0.00 0.00 0.00 0.00 0.00 0.00 0.00 0.00 0.00 0.00 0.00
0.00 0.00 0.01 0.01 0.01 0.01 0.00 0.00 0.00 0.00 0.01 0.01 0.00 0.00 0.01 0.01 0.01 0.00 0.00 0.00 0.00 0.00 0.00 0.00 0.00 0.00 0.00 0.01 0.01 0.01 0.01 0.01 0.01 0.00 0.00 0.00 0.00 0.00 0.00 0.00 0.00 0.00 0.00 0.00
0.00 0.00 0.00 0.01 0.01 0.01 0.01 0.00 0.00 0.00 0.01 0.01 0.00 0.00 0.00 0.01 0.02 0.01 0.00 0.00 0.00 0.00 0.00 0.00 0.00 0.00 0.00 0.00 0.01 0.01 0.01 0.00 0.00 0.00 0.00 0.00 0.01 0.01 0.01 0.00 0.00 0.00 0.01 0.00
0.00 0.01 0.01 0.00 0.01 0.01 0.00 0.00 0.00 0.01 0.01 0.01 0.01 0.00 0.00 0.00 0.01 0.01 0.00 0.00 0.00 0.00 0.00 0.00 0.00 0.00 0.00 0.00 0.00 0.01 0.01 0.01 0.01 0.01 0.01 0.01 0.01 0.01 0.01 0.01 0.00 0.00 0.01 0.01
0.00 0.01 0.01 0.01 0.01 0.00 0.00 0.00 0.01 0.01 0.00 0.01 0.01 0.00 0.00 0.00 0.00 0.01 0.00 0.00 0.00 0.00 0.00 0.00 0.00 0.00 0.00 0.00 0.00 0.00 0.00 0.00 0.01 0.01 0.01 0.01 0.01 0.01 0.01 0.01 0.01 0.01 0.01 0.01
0.00 0.01 0.01 0.01 0.01 0.00 0.00 0.00 0.00 0.00 0.00 0.00 0.01 0.00 0.00 0.00 0.00 0.00 0.00 0.00 0.00 0.00 0.00 0.00 0.00 0.00 0.00 0.00 0.00 0.00 0.00 0.00 0.01 0.01 0.01 0.01 0.01 0.01 0.01 0.01 0.01 0.01 0.01 0.01
0.00 0.00 0.00 0.00 0.00 0.00 0.00 0.00 0.00 0.00 0.00 0.00 0.00 0.00 0.00 0.00 0.00 0.00 0.00 0.00 0.00 0.00 0.00 0.00 0.00 0.01 0.01 0.01 0.01 0.00 0.00 0.00 0.01 0.01 0.02 0.01 0.02 0.02 0.02 0.02 0.02 0.02 0.01 0.02
0.00 0.00 0.00 0.00 0.00 0.00 0.00 0.00 0.00 0.00 0.00 0.00 0.00 0.00 0.00 0.00 0.00 0.00 0.00 0.00 0.00 0.00 0.00 0.00 0.00 0.00 0.01 0.01 0.01 0.01 0.00 0.01 0.01 0.01 0.01 0.01 0.01 0.02 0.02 0.03 0.03 0.03 0.03 0.02
0.00 0.00 0.00 0.01 0.00 0.00 0.00 0.00 0.00 0.00 0.00 0.00 0.00 0.00 0.00 0.00 0.00 0.00 0.00 0.00 0.00 0.00 0.00 0.00 0.00 0.00 0.01 0.01 0.01 0.01 0.01 0.02 0.02 0.03 0.02 0.02 0.01 0.02 0.02 0.02 0.02 0.02 0.02 0.02
MSLP
1015.32 1016.23 1017.09 1017.91 1018.71 1019.50 1020.33 1021.20 1022.09 1022.97 1023.77 1024.42 1024.83 1024.97 1024.82 1024.39 1023.75 1022.98 1022.17 1021.41 1020.77 1020.29 1019.98 1019.83 1019.78 1019.82 1019.88 1019.95 1020.01 1020.06 1020.12 1020.19 1020.28 1020.40 1020.54 1020.68 1020.80 1020.88 1020.90 1020.86 1020.76 1020.63 1020.46 1020.30
1016.24 1016.96 1017.61 1018.20 1018.80 1019.43 1020.15 1020.98 1021.88 1022.82 1023.70 1024.43 1024.94 1025.15 1025.04 1024.64 1024.01 1023.24 1022.45 1021.72 1021.12 1020.69 1020.44 1020.34 1020.34 1020.40 1020.47 1020.52 1020.55 1020.57 1020.59 1020.65 1020.74 1020.88 1021.06 1021.24 1021.41 1021.54 1021.60 1021.60 1021.53 1021.42 1021.28 1021.15
1017.07 1017.62 1018.08 1018.49 1018.90 1019.40 1020.01 1020.78 1021.66 1022.60 1023.51 1024.27 1024.80 1025.03 1024.93 1024.55 1023.94 1023.22 1022.48 1021.83 1021.33 1021.01 1020.86 1020.85 1020.92 1021.02 1021.09 1021.13 1021.13 1021.10 1021.09 1021.11 1021.20 1021.35 1021.55 1021.78 1021.99 1022.17 1022.28 1022.32 1022.29 1022.21 1022.11 1022.01
1017.77 1018.19 1018.51 1018.78 1019.07 1019.45 1019.98 1020.67 1021.51 1022.41 1023.27 1024.00 1024.49 1024.68 1024.57 1024.18 1023.60 1022.93 1022.28 1021.75 1021.38 1021.20 1021.19 1021.30 1021.46 1021.61 1021.71 1021.74 1021.71 1021.64 1021.59 1021.59 1021.66 1021.81 1022.03 1022.29 1022.55 1022.77 1022.93 1023.01 1023.02 1022.99 1022.93 1022.87
1018.31 1018.66 1018.90 1019.08 1019.29 1019.60 1020.06 1020.69 1021.46 1022.28 1023.06 1023.69 1024.10 1024.22 1024.05 1023.64 1023.07 1022.47 1021.92 1021.51 1021.30 1021.28 1021.42 1021.65 1021.91 1022.13 1022.26 1022.30 1022.25 1022.16 1022.08 1022.05 1022.11 1022.27 1022.50 1022.79 1023.08 1023.34 1023.53 1023.66 1023.71 1023.72 1023.70 1023.68
1018.69 1019.00 1019.20 1019.35 1019.53 1019.80 1020.22 1020.79 1021.47 1022.20 1022.87 1023.39 1023.68 1023.70 1023.47 1023.03 1022.48 1021.93 1021.48 1021.20 1021.14 1021.27 1021.55 1021.91 1022.27 1022.55 1022.72 1022.78 1022.73 1022.64 1022.54 1022.51 1022.56 1022.72 1022.96 1023.26 1023.57 1023.85 1024.08 1024.24 1024.33 1024.38 1024.40 1024.42
1018.92 1019.21 1019.41 1019.55 1019.72 1019.98 1020.37 1020.89 1021.50 1022.12 1022.68 1023.08 1023.26 1023.19 1022.90 1022.44 1021.91 1021.43 1021.07 1020.91 1020.97 1021.22 1021.62 1022.08 1022.52 1022.87 1023.09 1023.17 1023.14 1023.06 1022.97 1022.94 1023.00 1023.15 1023.40 1023.70 1024.02 1024.32 1024.56 1024.75 1024.87 1024.95 1025.00 1025.06
1018.99 1019.28 1019.47 1019.63 1019.80 1020.06 1020.42 1020.89 1021.43 1021.97 1022.43 1022.73 1022.82 1022.70 1022.37 1021.92 1021.44 1021.03 1020.76 1020.70 1020.85 1021.20 1021.68 1022.20 1022.69 1023.09 1023.35 1023.47 1023.48 1023.42 1023.36 1023.35 1023.42 1023.59 1023.83 1024.12 1024.44 1024.73 1024.98 1025.18 1025.32 1025.43 1025.52 1025.60
1018.92 1019.20 1019.39 1019.55 1019.72 1019.97 1020.30 1020.72 1021.20 1021.66 1022.04 1022.27 1022.33 1022.19 1021.89 1021.49 1021.08 1020.75 1020.57 1020.59 1020.82 1021.21 1021.73 1022.28 1022.80 1023.22 1023.51 1023.67 1023.73 1023.73 1023.72 1023.75 1023.84 1024.01 1024.25 1024.54 1024.83 1025.11 1025.35 1025.55 1025.70 1025.83 1025.95 1026.07
1018.72 1018.97 1019.15 1019.30 1019.46 1019.67 1019.97 1020.33 1020.74 1021.13 1021.46 1021.67 1021.72 1021.62 1021.39 1021.08 1020.78 1020.56 1020.47 1020.56 1020.84 1021.26 1021.78 1022.32 1022.84 1023.27 1023.59 1023.79 1023.91 1023.98 1024.03 1024.11 1024.24 1024.43 1024.67 1024.94 1025.21 1025.46 1025.68 1025.87 1026.03 1026.18 1026.32 1026.47
1018.40 1018.62 1018.78 1018.90 1019.03 1019.19 1019.42 1019.71 1020.04 1020.38 1020.66 1020.87 1020.95 1020.93 1020.80 1020.63 1020.47 1020.37 1020.39 1020.55 1020.85 1021.27 1021.77 1022.29 1022.79 1023.22 1023.56 1023.82 1024.00 1024.15 1024.29 1024.44 1024.62 1024.84 1025.08 1025.33 1025.57 1025.79 1025.99 1026.16 1026.33 1026.50 1026.67 1026.85
1017.99 1018.19 1018.33 1018.42 1018.50 1018.60 1018.74 1018.94 1019.18 1019.44 1019.68 1019.88 1020.02 1020.08 1020.09 1020.06 1020.05 1020.09 1020.22 1020.44 1020.77 1021.18 1021.65 1022.14 1022.61 1023.03 1023.40 1023.72 1023.99 1024.23 1024.46 1024.70 1024.94 1025.20 1025.45 1025.69 1025.91 1026.10 1026.28 1026.45 1026.62 1026.80 1027.00 1027.23
1017.54 1017.75 1017.87 1017.94 1017.96 1017.99 1018.03 1018.12 1018.24 1018.41 1018.59 1018.77 1018.94 1019.08 1019.21 1019.33 1019.47 1019.64 1019.87 1020.16 1020.52 1020.93 1021.37 1021.82 1022.27 1022.70 1023.10 1023.47 1023.83 1024.18 1024.51 1024.85 1025.17 1025.47 1025.75 1025.99 1026.20 1026.38 1026.54 1026.71 1026.89 1027.10 1027.33 1027.59
1017.11 1017.34 1017.48 1017.53 1017.51 1017.45 1017.39 1017.35 1017.34 1017.39 1017.48 1017.62 1017.78 1017.98 1018.19 1018.43 1018.69 1018.99 1019.31 1019.67 1020.05 1020.46 1020.88 1021.31 1021.75 1022.19 1022.63 1023.07 1023.52 1023.97 1024.41 1024.84 1025.25 1025.61 1025.93 1026.19 1026.41 1026.59 1026.76 1026.94 1027.14 1027.37 1027.64 1027.94
1016.75 1017.03 1017.19 1017.24 1017.19 1017.06 1016.89 1016.72 1016.57 1016.48 1016.45 1016.50 1016.63 1016.83 1017.09 1017.40 1017.76 1018.14 1018.54 1018.95 1019.36 1019.78 1020.20 1020.62 1021.06 1021.51 1021.99 1022.50 1023.03 1023.58 1024.13 1024.66 1025.15 1025.58 1025.95 1026.25 1026.50 1026.70 1026.90 1027.10 1027.33 1027.60 1027.91 1028.24
1016.50 1016.82 1017.02 1017.08 1017.01 1016.83 1016.57 1016.28 1015.99 1015.75 1015.58 1015.52 1015.56 1015.72 1015.98 1016.32 1016.72 1017.16 1017.61 1018.06 1018.51 1018.93 1019.35 1019.78 1020.22 1020.69 1021.21 1021.77 1022.38 1023.01 1023.65 1024.27 1024.84 1025.35 1025.79 1026.15 1026.44 1026.69 1026.92 1027.17 1027.44 1027.75 1028.09 1028.46
1016.33 1016.69 1016.93 1017.01 1016.94 1016.72 1016.39 1015.99 1015.58 1015.20 1014.89 1014.70 1014.64 1014.73 1014.94 1015.26 1015.67 1016.13 1016.61 1017.09 1017.55 1017.99 1018.42 1018.84 1019.29 1019.78 1020.32 1020.93 1021.58 1022.28 1022.99 1023.68 1024.34 1024.92 1025.43 1025.86 1026.22 1026.53 1026.82 1027.12 1027.44 1027.79 1028.17 1028.56
1016.22 1016.60 1016.85 1016.95 1016.87 1016.64 1016.27 1015.80 1015.29 1014.80 1014.37 1014.06 1013.89 1013.88 1014.03 1014.30 1014.69 1015.14 1015.62 1016.10 1016.57 1017.02 1017.45 1017.89 1018.34 1018.83 1019.39 1020.01 1020.70 1021.43 1022.19 1022.94 1023.65 1024.31 1024.89 1025.39 1025.83 1026.22 1026.58 1026.94 1027.31 1027.70 1028.10 1028.51
1016.09 1016.44 1016.68 1016.78 1016.71 1016.48 1016.09 1015.59 1015.03 1014.47 1013.95 1013.55 1013.29 1013.19 1013.26 1013.48 1013.82 1014.24 1014.70 1015.18 1015.65 1016.10 1016.53 1016.96 1017.41 1017.91 1018.46 1019.08 1019.77 1020.51 1021.30 1022.08 1022.84 1023.56 1024.21 1024.79 1025.31 1025.78 1026.21 1026.63 1027.04 1027.47 1027.90 1028.32
1015.86 1016.15 1016.35 1016.43 1016.35 1016.13 1015.75 1015.25 1014.68 1014.10 1013.55 1013.09 1012.77 1012.61 1012.61 1012.77 1013.06 1013.45 1013.89 1014.35 1014.81 1015.25 1015.68 1016.10 1016.54 1017.02 1017.56 1018.16 1018.84 1019.58 1020.37 1021.17 1021.96 1022.73 1023.44 1024.09 1024.68 1025.22 1025.72 1026.19 1026.65 1027.10 1027.54 1027.97
1015.50 1015.68 1015.80 1015.83 1015.75 1015.53 1015.18 1014.72 1014.18 1013.62 1013.08 1012.62 1012.28 1012.08 1012.04 1012.16 1012.41 1012.76 1013.16 1013.60 1014.04 1014.48 1014.89 1015.31 1015.73 1016.19 1016.71 1017.29 1017.95 1018.67 1019.44 1020.25 1021.06 1021.86 1022.61 1023.32 1023.98 1024.58 1025.13 1025.65 1026.15 1026.61 1027.06 1027.48
1014.98 1015.03 1015.05 1015.01 1014.90 1014.69 1014.38 1013.97 1013.50 1013.00 1012.51 1012.09 1011.76 1011.57 1011.51 1011.60 1011.82 1012.13 1012.51 1012.92 1013.34 1013.75 1014.16 1014.56 1014.97 1015.42 1015.91 1016.46 1017.09 1017.79 1018.55 1019.35 1020.17 1020.98 1021.77 1022.52 1023.23 1023.87 1024.47 1025.02 1025.54 1026.01 1026.46 1026.88
1014.33 1014.24 1014.14 1014.03 1013.88 1013.67 1013.40 1013.06 1012.66 1012.24 1011.84 1011.48 1011.20 1011.03 1010.98 1011.06 1011.25 1011.53 1011.88 1012.26 1012.66 1013.06 1013.45 1013.83 1014.23 1014.66 1015.14 1015.67 1016.28 1016.95 1017.69 1018.48 1019.30 1020.12 1020.93 1021.71 1022.44 1023.12 1023.74 1024.31 1024.84 1025.32 1025.77 1026.19
1013.62 1013.39 1013.18 1012.98 1012.79 1012.58 1012.33 1012.06 1011.75 1011.42 1011.11 1010.83 1010.62 1010.49 1010.46 1010.53 1010.71 1010.96 1011.27 1011.62 1011.99 1012.36 1012.74 1013.11 1013.50 1013.91 1014.37 1014.89 1015.48 1016.14 1016.86 1017.64 1018.45 1019.27 1020.09 1020.87 1021.62 1022.31 1022.95 1023.53 1024.07 1024.55 1025.00 1025.42
1012.91 1012.55 1012.24 1011.97 1011.73 1011.51 1011.30 1011.08 1010.85 1010.61 1010.39 1010.19 1010.04 1009.95 1009.95 1010.03 1010.18 1010.41 1010.68 1011.00 1011.33 1011.68 1012.03 1012.38 1012.75 1013.16 1013.61 1014.11 1014.69 1015.33 1016.04 1016.80 1017.60 1018.42 1019.23 1020.02 1020.77 1021.47 1022.11 1022.70 1023.23 1023.73 1024.18 1024.62
1012.25 1011.80 1011.41 1011.08 1010.81 1010.59 1010.39 1010.22 1010.05 1009.89 1009.74 1009.62 1009.52 1009.48 1009.49 1009.57 1009.70 1009.90 1010.13 1010.40 1010.70 1011.00 1011.32 1011.65 1012.01 1012.39 1012.83 1013.32 1013.88 1014.51 1015.20 1015.95 1016.73 1017.54 1018.34 1019.13 1019.87 1020.58 1021.22 1021.81 1022.35 1022.86 1023.33 1023.79
Thickness
5756 5743 5734 5741 5746 5744 5742 5734 5728 5734 5748 5742 5732 5732 5738 5745 5745 5743 5743 5744 5744 5745 5749 5750 5748 5747 5746 5744 5743 5740 5737 5736 5733 5730 5727 5724 5723 5724 5724 5724 5723 5722 5721 5720
5743 5736 5748 5755 5754 5748 5740 5730 5728 5735 5747 5741 5731 5731 5740 5744 5743 5743 5743 5743 5744 5743 5745 5745 5745 5744 5743 5741 5740 5738 5735 5734 5732 5729 5727 5725 5724 5722 5722 5721 5720 5719 5718 5718
5736 5744 5756 5751 5745 5740 5736 5730 5729 5728 5737 5742 5733 5725 5732 5741 5745 5745 5745 5745 5745 5742 5741 5741 5741 5740 5740 5738 5737 5737 5734 5732 5730 5728 5726 5723 5721 5719 5717 5716 5715 5716 5715 5715
5744 5751 5750 5745 5740 5739 5728 5740 5737 5731 5723 5721 5731 5708 5724 5734 5736 5738 5739 5742 5742 5742 5742 5740 5738 5737 5737 5737 5737 5736 5733 5731 5729 5726 5722 5718 5714 5711 5712 5713 5713 5713 5713 5712
5740 5748 5743 5738 5741 5743 5736 5745 5740 5735 5727 5723 5728 5717 5718 5733 5727 5733 5738 5740 5742 5742 5740 5738 5737 5736 5736 5736 5735 5733 5731 5728 5726 5724 5721 5717 5714 5712 5712 5711 5710 5710 5709 5709
5748 5756 5752 5747 5750 5750 5746 5741 5739 5736 5727 5710 5727 5719 5712 5728 5732 5735 5739 5741 5741 5741 5740 5738 5737 5736 5734 5733 5731 5729 5727 5724 5723 5721 5718 5715 5712 5710 5708 5706 5705 5705 5705 5704
5738 5747 5753 5754 5740 5743 5741 5722 5707 5705 5703 5709 5735 5724 5721 5740 5746 5743 5741 5741 5742 5741 5738 5735 5733 5731 5729 5728 5727 5725 5722 5720 5720 5718 5715 5713 5710 5708 5705 5703 5702 5701 5700 5699
5723 5724 5744 5748 5740 5732 5735 5725 5702 5692 5699 5714 5732 5720 5730 5748 5751 5750 5748 5744 5742 5739 5736 5733 5731 5729 5727 5725 5724 5721 5719 5716 5716 5714 5713 5711 5709 5706 5703 5702 5700 5698 5697 5696
5723 5723 5745 5749 5750 5742 5731 5727 5735 5720 5718 5710 5718 5726 5733 5746 5744 5743 5742 5740 5736 5735 5733 5731 5729 5728 5725 5722 5721 5719 5716 5714 5713 5711 5710 5708 5706 5704 5701 5700 5699 5697 5695 5693
5732 5719 5735 5744 5744 5744 5740 5736 5727 5715 5699 5694 5708 5715 5718 5727 5731 5734 5734 5733 5733 5732 5731 5729 5727 5725 5724 5722 5720 5718 5716 5712 5710 5709 5707 5705 5703 5701 5699 5697 5695 5694 5693 5692
5734 5719 5723 5731 5727 5726 5730 5726 5724 5719 5716 5698 5692 5705 5737 5731 5732 5729 5729 5731 5730 5728 5727 5725 5724 5723 5721 5719 5717 5714 5712 5710 5708 5706 5705 5702 5700 5698 5696 5693 5692 5691 5689 5688
5730 5720 5711 5722 5739 5743 5734 5728 5721 5702 5705 5712 5702 5706 5741 5738 5735 5731 5728 5728 5728 5726 5724 5722 5721 5719 5716 5715 5713 5711 5709 5707 5705 5704 5701 5699 5696 5694 5691 5689 5689 5688 5686 5685
5720 5711 5699 5704 5716 5726 5723 5726 5724 5717 5711 5706 5697 5703 5736 5736 5732 5730 5726 5724 5723 5722 5720 5718 5715 5713 5711 5710 5709 5708 5706 5704 5703 5701 5698 5695 5692 5689 5687 5686 5685 5685 5683 5681
5717 5708 5699 5691 5702 5714 5713 5717 5720 5711 5699 5700 5707 5710 5720 5725 5723 5724 5722 5721 5720 5718 5715 5712 5709 5708 5707 5706 5705 5704 5703 5701 5699 5697 5694 5691 5688 5686 5684 5683 5682 5681 5679 5677
5716 5704 5706 5710 5718 5719 5715 5713 5714 5709 5708 5701 5708 5712 5717 5721 5720 5720 5720 5718 5716 5713 5710 5708 5705 5704 5703 5702 5701 5700 5698 5698 5696 5692 5689 5687 5686 5683 5681 5678 5677 5675 5674 5673
5714 5704 5705 5705 5714 5716 5711 5713 5713 5711 5712 5709 5710 5711 5724 5726 5722 5718 5716 5714 5710 5708 5707 5706 5704 5701 5699 5698 5696 5695 5694 5693 5692 5688 5685 5683 5681 5679 5676 5674 5672 5670 5668 5667
5706 5701 5693 5692 5706 5705 5697 5711 5712 5711 5715 5711 5704 5711 5721 5717 5716 5713 5712 5709 5708 5706 5704 5703 5701 5699 5697 5696 5694 5690 5690 5690 5687 5684 5681 5679 5676 5673 5671 5670 5667 5664 5662 5661
5701 5696 5692 5689 5690 5675 5701 5724 5720 5713 5713 5715 5714 5717 5717 5715 5715 5715 5713 5707 5705 5704 5701 5700 5699 5696 5695 5694 5691 5688 5686 5684 5682 5679 5677 5675 5671 5668 5665 5663 5660 5659 5657 5655
5705 5692 5683 5680 5675 5683 5702 5712 5712 5704 5701 5712 5710 5711 5712 5713 5709 5706 5709 5706 5701 5700 5698 5697 5696 5694 5691 5689 5687 5684 5680 5678 5676 5673 5672 5670 5667 5662 5659 5656 5654 5653 5651 5649
5700 5694 5680 5675 5666 5668 5689 5706 5714 5703 5688 5706 5707 5703 5702 5701 5686 5687 5699 5698 5695 5694 5692 5691 5689 5688 5685 5683 5681 5677 5673 5671 5669 5668 5667 5665 5663 5658 5654 5652 5649 5647 5645 5643
5679 5678 5672 5668 5664 5675 5692 5701 5702 5675 5678 5698 5701 5698 5695 5689 5687 5690 5693 5690 5687 5686 5685 5684 5681 5678 5677 5676 5674 5670 5667 5664 5664 5663 5661 5660 5657 5654 5651 5647 5645 5642 5639 5636
5675 5669 5668 5667 5659 5664 5688 5689 5680 5681 5693 5694 5693 5692 5689 5686 5686 5685 5682 5680 5678 5676 5675 5674 5671 5669 5669 5668 5665 5662 5658 5659 5658 5656 5654 5652 5651 5649 5647 5642 5638 5636 5633 5630
5676 5675 5671 5668 5667 5679 5685 5683 5685 5688 5685 5685 5684 5684 5682 5678 5677 5675 5673 5671 5670 5668 5666 5665 5662 5660 5660 5659 5656 5653 5652 5652 5651 5648 5647 5646 5644 5642 5641 5637 5632 5629 5627 5623
5674 5680 5671 5667 5670 5675 5678 5680 5680 5680 5678 5679 5679 5677 5675 5671 5669 5667 5665 5663 5662 5660 5658 5657 5654 5652 5651 5650 5649 5647 5646 5645 5643 5640 5639 5639 5637 5635 5633 5631 5628 5624 5621 5618
5660 5664 5660 5658 5663 5666 5667 5668 5670 5671 5672 5671 5671 5670 5667 5663 5661 5660 5658 5656 5654 5653 5652 5650 5647 5645 5644 5644 5642 5641 5640 5638 5636 5634 5633 5631 5630 5628 5625 5623 5621 5619 5617 5615
5653 5650 5644 5644 5654 5653 5655 5662 5664 5661 5660 5660 5659 5658 5658 5657 5654 5653 5652 5650 5648 5647 5645 5643 5642 5640 5639 5638 5636 5635 5633 5631 5629 5627 5626 5624 5622 5620 5618 5616 5613 5612 5611 5609